Location: Rio Negrinho
(26.2394°S, 49.4999°W)
Time: 02:18:34
(UTC+00:00)

N. Korean satellite - Pass Details

Date: 09 August 2021
Orbit: 449 x 498 km, 97.3° (Epoch: 28 September)

Event Time Altitude Azimuth Distance (km) Brightness Sun altitude
Rises 08:17:53 0° 358° (N) 2,441 10.2 -21.3°
Reaches altitude 10° 08:19:58 10° 350° (N) 1,577 9.1 -20.9°
Enters shadow 08:20:09 11° 349° (N) 1,505 9.0 -20.8°
